Weather History for KIPL - October, 2012

Change the Weather History Date:

Tuesday, October 23, 2012

  Actual Average Record
Temperature  
Mean Temperature 73 °F -  
Max Temperature 84 °F 86 °F 102 °F (2003)
Min Temperature 62 °F 59 °F 45 °F (1996)
Cooling Degree Days 8    
Growing Degree Days 23 (Base 50)    
Moisture  
Dew Point 42 °F    
Average Humidity 36    
Maximum Humidity 55    
Minimum Humidity 20    
Precipitation  
Precipitation 0.00 in - - ()
Sea Level Pressure  
Sea Level Pressure 29.83 in    
Wind  
Wind Speed 10 mph (WNW)    
Max Wind Speed 17 mph    
Max Gust Speed 22 mph    
Visibility 10 miles    
Events      
Averages and records for this station are not official NWS values.
T = Trace of Precipitation, MM = Missing Value Source: NWS Daily Summary

Daily Weather History Graph

Daily Weather History Graph

Search for Another Location

Airport or City:

Trip Planner

Search our weather history database for the weather conditions in past years. The results will help you decide how hot, cold, wet, or windy it might be!

Date:

Astronomy

Oct. 23, 2012 Rise Set
Actual Time 6:53 AM PDT 5:59 PM PDT
Civil Twilight 6:27 AM PDT 6:24 PM PDT
Nautical Twilight 5:59 AM PDT 6:53 PM PDT
Astronomical Twilight 5:30 AM PDT 7:22 PM PDT
Moon 2:29 PM PDT (10/23) 1:08 AM PDT (10/23)
Length of Visible Light 11h 56m
Length of Day
11h 06m
Waxing Gibbous, 67% of the Moon is Illuminated
Oct 23
Waxing Gibbous
Oct 29
Full
Nov 6
Last Quarter
Nov 13
New
Nov 20
First Quarter

Hourly Weather History & Observations

Time (PDT) Temp. Dew Point Humidity Pressure Visibility Wind Dir Wind Speed Gust Speed Precip Events Conditions
12:53 AM 66.0 °F 37.9 °F 36% 29.85 in 10.0 mi NW 8.1 mph - N/A   Clear
1:53 AM 63.0 °F 37.9 °F 40% 29.85 in 10.0 mi NW 6.9 mph - N/A   Clear
2:53 AM 64.9 °F 33.1 °F 31% 29.83 in 10.0 mi NNW 4.6 mph - N/A   Clear
3:53 AM 64.0 °F 39.0 °F 40% 29.81 in 10.0 mi West 5.8 mph - N/A   Clear
4:53 AM 64.9 °F 43.0 °F 45% 29.83 in 10.0 mi WSW 5.8 mph - N/A   Clear
5:53 AM 64.4 °F 42.8 °F 45% 29.85 in 10.0 mi WNW 8.1 mph - N/A   Clear
6:53 AM 63.0 °F 46.0 °F 54% 29.87 in 10.0 mi West 8.1 mph - N/A   Clear
7:53 AM 62.6 °F 46.4 °F 55% 29.88 in 10.0 mi West 4.6 mph - N/A   Clear
8:53 AM 71.1 °F 48.9 °F 45% 29.89 in 10.0 mi West 16.1 mph - N/A   Clear
9:53 AM 72.0 °F 48.0 °F 43% 29.90 in 10.0 mi WNW 13.8 mph 17.3 mph N/A   Clear
10:53 AM 73.9 °F 48.0 °F 40% 29.88 in 10.0 mi West 10.4 mph - N/A   Clear
11:53 AM 78.1 °F 48.0 °F 35% 29.86 in 10.0 mi West 13.8 mph - N/A   Clear
12:53 PM 82.9 °F 42.1 °F 24% 29.83 in 10.0 mi WNW 15.0 mph 19.6 mph N/A   Clear
1:53 PM 84.0 °F 39.0 °F 20% 29.80 in 10.0 mi WNW 12.7 mph - N/A   Clear
2:53 PM 84.0 °F 39.0 °F 20% 29.78 in 10.0 mi WNW 15.0 mph 21.9 mph N/A   Clear
3:53 PM 82.9 °F 39.0 °F 21% 29.78 in 10.0 mi West 11.5 mph - N/A   Clear
4:53 PM 81.0 °F 39.9 °F 23% 29.76 in 10.0 mi West 17.3 mph - N/A   Clear
5:53 PM 77.0 °F 39.9 °F 26% 29.77 in 10.0 mi WSW 15.0 mph - N/A   Clear
6:53 PM 73.0 °F 44.1 °F 35% 29.79 in 10.0 mi West 15.0 mph - N/A   Clear
7:53 PM 70.0 °F 44.1 °F 39% 29.80 in 10.0 mi West 12.7 mph - N/A   Clear
8:53 PM 69.1 °F 45.0 °F 42% 29.81 in 10.0 mi West 15.0 mph - N/A   Clear
9:53 PM 66.0 °F 44.1 °F 45% 29.82 in 9.0 mi NW 8.1 mph - N/A   Clear
10:53 PM 62.6 °F 35.6 °F 37% 29.83 in 9.0 mi WNW 5.8 mph - N/A   Clear
11:53 PM 64.0 °F 34.0 °F 33% 29.82 in 10.0 mi NW 10.4 mph - N/A   Clear